GW3994 Weather Reports


time (UTC)temp
F
wind
direction
speed
knots
gust
knots
rain 1hr
in
rain 24hr
in
rain mn
in
humidity
%
barometer
mb
20260503224958 0 193 7.8 8.7 0.00 0.00 0.00 1013.2
20260503224455 0 242 7.0 7.8 0.00 0.00 0.00 1013.2
20260503223953 0 250 8.7 9.6 0.00 0.00 0.00 1013.2
20260503223451 0 252 5.2 5.2 0.00 0.00 0.00 1013.2
20260503222946 0 186 6.1 8.7 0.00 0.00 0.00 1013.7
20260503222445 0 192 6.1 8.7 0.00 0.00 0.00 1013.7
20260503221942 0 180 9.6 10.4 0.00 0.00 0.00 1013.7
20260503221440 0 210 9.6 10.4 0.00 0.00 0.00 1013.2
20260503220937 0 172 5.2 5.2 0.00 0.00 0.00 1013.2
20260503220433 0 190 5.2 5.2 0.00 0.00 0.00 1013.2
20260503215930 0 147 5.2 5.2 0.00 0.00 0.00 1013.2
20260503215427 0 192 6.1 6.1 0.00 0.00 0.00 1013.2
20260503214925 0 259 8.7 8.7 0.00 0.00 0.00 1013.2
20260503214422 0 246 8.7 9.6 0.00 0.00 0.00 1013.7
20260503213920 0 168 4.3 4.3 0.00 0.00 0.00 1013.7
20260503213418 0 168 2.6 3.5 0.00 0.00 0.00 1013.7
20260503212914 0 265 11.3 13.0 0.00 0.00 0.00 1013.7
20260503212412 0 210 5.2 6.1 0.00 0.00 0.00 1013.7
20260503211909 0 216 8.7 8.7 0.00 0.00 0.00 1013.7
20260503211405 0 198 7.8 10.4 0.00 0.00 0.00 1013.7
20260503210900 0 62 4.3 5.2 0.00 0.00 0.00 1013.7
20260503210358 0 238 7.0 7.8 0.00 0.00 0.00 1013.7
20260503205853 0 319 6.1 7.0 0.00 0.00 0.00 1014.0
20260503205350 0 276 3.5 3.5 0.00 0.00 0.00 1014.0
20260503204846 0 36 2.6 2.6 0.00 0.00 0.00 1014.0
20260503204343 0 24 5.2 5.2 0.00 0.00 0.00 1013.7
20260503203841 0 182 8.7 10.4 0.00 0.00 0.00 1013.7
20260503203338 0 256 7.8 9.6 0.00 0.00 0.00 1013.7
20260503202835 0 185 7.0 7.8 0.00 0.00 0.00 1014.0
20260503202333 0 252 5.2 5.2 0.00 0.00 0.00 1014.0
20260503201831 0 186 5.2 6.1 0.00 0.00 0.00 1014.0
20260503201327 0 199 8.7 9.6 0.00 0.00 0.00 1014.3
20260503200825 0 112 7.8 7.8 0.00 0.00 0.00 1014.3
20260503200321 0 235 11.3 13.0 0.00 0.00 0.00 1014.3
20260503195819 0 264 6.1 8.7 0.00 0.00 0.00 1014.3
20260503195315 0 188 8.7 8.7 0.00 0.00 0.00 1014.3
20260503194813 0 161 2.6 3.5 0.00 0.00 0.00 1014.3
20260503194308 0 246 8.7 10.4 0.00 0.00 0.00 1014.7
20260503193804 0 236 8.7 11.3 0.00 0.00 0.00 1014.7
20260503193300 0 168 7.8 8.7 0.00 0.00 0.00 1014.7
20260503192756 0 174 7.8 8.7 0.00 0.00 0.00 1014.7
20260503192252 0 270 4.3 5.2 0.00 0.00 0.00 1014.7
20260503191749 0 252 8.7 8.7 0.00 0.00 0.00 1014.7
20260503191246 0 179 11.3 14.8 0.00 0.00 0.00 1015.0
20260503190742 0 208 7.0 8.7 0.00 0.00 0.00 1015.0
20260503190239 0 116 8.7 8.7 0.00 0.00 0.00 1015.0
20260503185737 0 185 5.2 5.2 0.00 0.00 0.00 1015.0
20260503185232 0 258 7.0 7.8 0.00 0.00 0.00 1015.0
20260503184727 0 229 9.6 9.6 0.00 0.00 0.00 1015.0
20260503184223 0 204 11.3 11.3 0.00 0.00 0.00 1015.4
20260503183720 0 214 6.1 8.7 0.00 0.00 0.00 1015.4
20260503183217 0 264 8.7 8.7 0.00 0.00 0.00 1015.4
20260503182716 0 168 7.8 8.7 0.00 0.00 0.00 1015.7
20260503182214 0 210 5.2 6.1 0.00 0.00 0.00 1015.7
20260503181709 0 192 5.2 6.1 0.00 0.00 0.00 1015.7
20260503181207 0 150 3.5 3.5 0.00 0.00 0.00 1015.4
20260503180703 0 242 9.6 10.4 0.00 0.00 0.00 1015.4
20260503180202 0 192 8.7 9.6 0.00 0.00 0.00 1015.4
20260503175658 0 151 4.3 4.3 0.00 0.00 0.00 1016.0
20260503175156 0 173 5.2 5.2 0.00 0.00 0.00 1016.0
20260503174652 0 209 7.8 8.7 0.00 0.00 0.00 1016.0
20260503174149 0 203 7.0 7.8 0.00 0.00 0.00 1016.4
20260503173644 0 168 5.2 6.1 0.00 0.00 0.00 1016.4
20260503173141 0 277 5.2 5.2 0.00 0.00 0.00 1016.4
20260503172638 0 274 4.3 5.2 0.00 0.00 0.00 1016.4
20260503172135 0 206 4.3 5.2 0.00 0.00 0.00 1016.4
20260503171631 0 258 8.7 8.7 0.00 0.00 0.00 1016.4
20260503171129 0 241 12.2 13.0 0.00 0.00 0.00 1016.4
20260503170626 0 222 7.0 7.8 0.00 0.00 0.00 1016.4
20260503170123 0 276 7.8 8.7 0.00 0.00 0.00 1016.4
20260503151012 0 168 8.7 9.6 0.00 0.00 0.00 1017.4
20260503150508 0 153 10.4 12.2 0.00 0.00 0.00 1017.4
20260503131355 0 0 7.0 7.8 0.00 0.00 0.00 1017.7
20260503130853 0 0 7.8 8.7 0.00 0.00 0.00 1017.7
20260503130350 0 0 5.2 5.2 0.00 0.00 0.00 1017.7
20260503110744 0 0.0 0.0 0.00 0.00 0.00 1018.2
20260503110241 0 0.0 0.0 0.00 0.00 0.00 1018.2
20260503100207 0 0.0 0.0 0.00 0.00 0.00 1018.2
20260503090131 0 0.0 0.0 0.00 0.00 0.00 1018.2
20260503081607 0 0.0 0.0 0.00 0.00 0.00 1018.2
20260503081105 0 0.0 0.0 0.00 0.00 0.00 1018.2
20260503080600 0 0.0 0.0 0.00 0.00 0.00 1018.2
20260503072534 0 0.0 0.0 0.00 0.00 0.00 1018.2
20260503072031 0 0.0 0.0 0.00 0.00 0.00 1018.2
20260503071528 0 0.0 0.0 0.00 0.00 0.00 1018.2
20260503071025 0 0.0 0.0 0.00 0.00 0.00 1018.2
20260503070521 0 0.0 0.0 0.00 0.00 0.00 1018.2
20260503054934 0 0.0 0.0 0.00 0.00 0.00 1018.2
20260503054430 0 0.0 0.0 0.00 0.00 0.00 1018.2
20260503053928 0 0.0 0.0 0.00 0.00 0.00 1018.2
20260503053426 0 0.0 0.0 0.00 0.00 0.00 1018.2
20260503052922 0 0.0 0.0 0.00 0.00 0.00 1018.2
20260503052420 0 0.0 0.0 0.00 0.00 0.00 1018.2
20260503051916 0 0.0 0.0 0.00 0.00 0.00 1018.2
20260503051412 0 0.0 0.0 0.00 0.00 0.00 1018.2
20260503050909 0 0.0 0.0 0.00 0.00 0.00 1018.2
20260503050405 0 0.0 0.0 0.00 0.00 0.00 1018.2
20260503045902 0 0.0 0.0 0.00 0.00 0.00 1018.2
20260503045400 0 0.0 0.0 0.00 0.00 0.00 1018.2
20260503044856 0 0.0 0.0 0.00 0.00 0.00 1018.2
20260503044353 0 0.0 0.0 0.00 0.00 0.00 1018.2
20260503043850 0 0.0 0.0 0.00 0.00 0.00 1018.2
20260503043347 0 0.0 0.0 0.00 0.00 0.00 1018.2
20260503042843 0 0.0 0.0 0.00 0.00 0.00 1018.2
20260503042340 0 0.0 0.0 0.00 0.00 0.00 1018.2
20260503041836 0 0.0 0.0 0.00 0.00 0.00 1018.2
20260503041334 0 0.0 0.0 0.00 0.00 0.00 1018.2
20260503040831 0 0.0 0.0 0.00 0.00 0.00 1018.2
20260503040329 0 0.0 0.0 0.00 0.00 0.00 1018.2
20260503035826 0 0.0 0.0 0.00 0.00 0.00 1018.2
20260503035322 0 0.0 0.0 0.00 0.00 0.00 1018.2
20260503034820 0 0.0 0.0 0.00 0.00 0.00 1018.2
20260503034317 0 0.0 0.0 0.00 0.00 0.00 1018.2
20260503033814 0 0.0 0.0 0.00 0.00 0.00 1018.2
20260503033311 0 0.0 0.0 0.00 0.00 0.00 1018.2
20260503032810 0 0.0 0.0 0.00 0.00 0.00 1018.2
20260503032309 0 0.0 0.0 0.00 0.00 0.00 1018.2
20260503031805 0 0.0 0.0 0.00 0.00 0.00 1018.2
20260503031303 0 0.0 0.0 0.00 0.00 0.00 1018.2
20260503030759 0 0.0 0.0 0.00 0.00 0.00 1018.2
20260503030255 0 0.0 0.0 0.00 0.00 0.00 1018.2
20260503025752 0 0.0 0.0 0.00 0.00 0.00 1018.2
20260503025250 0 0.0 0.0 0.00 0.00 0.00 1018.2
20260503024747 0 0.0 0.0 0.00 0.00 0.00 1018.2
20260503024244 0 0.0 0.0 0.00 0.00 0.00 1018.2
20260503023740 0 0.0 0.0 0.00 0.00 0.00 1018.2
20260503023237 0 0.0 0.0 0.00 0.00 0.00 1018.2
20260503022734 0 0.0 0.0 0.00 0.00 0.00 1018.2
20260503022233 0 0.0 0.0 0.00 0.00 0.00 1018.2
20260503021731 0 0.0 0.0 0.00 0.00 0.00 1018.2
20260503021226 0 0.0 0.0 0.00 0.00 0.00 1018.2
20260503020724 0 0.0 0.0 0.00 0.00 0.00 1018.2
20260503020222 0 0.0 0.0 0.00 0.00 0.00 1018.2
20260503015718 0 0.0 0.0 0.00 0.00 0.00 1018.2
20260503015215 0 0.0 0.0 0.00 0.00 0.00 1018.2
20260503014711 0 0.0 0.0 0.00 0.00 0.00 1018.2
20260503014209 0 0.0 0.0 0.00 0.00 0.00 1018.2
20260503013706 0 0.0 0.0 0.00 0.00 0.00 1018.2
20260503013204 0 0.0 0.0 0.00 0.00 0.00 1018.2
20260503012701 0 0.0 0.0 0.00 0.00 0.00 1018.2
20260503012158 0 0.0 0.0 0.00 0.00 0.00 1018.2
20260503011654 0 0.0 0.0 0.00 0.00 0.00 1018.2
20260503011151 0 0.0 0.0 0.00 0.00 0.00 1018.2
20260503010647 0 0.0 0.0 0.00 0.00 0.00 1018.2
20260503010145 0 0.0 0.0 0.00 0.00 0.00 1018.2
20260503005642 0 0.0 0.0 0.00 0.00 0.00 1018.2
20260503005139 0 0.0 0.0 0.00 0.00 0.00 1018.2
20260503004635 0 0.0 0.0 0.00 0.00 0.00 1018.2
20260503004134 0 0.0 0.0 0.00 0.00 0.00 1018.2
20260503003630 0 0.0 0.0 0.00 0.00 0.00 1018.2
20260503003127 0 0.0 0.0 0.00 0.00 0.00 1018.2
20260503002624 0 0.0 0.0 0.00 0.00 0.00 1018.2
20260503002121 0 0.0 0.0 0.00 0.00 0.00 1018.2
20260503001617 0 0.0 0.0 0.00 0.00 0.00 1018.2
20260503001114 0 0.0 0.0 0.00 0.00 0.00 1018.2
20260503000612 0 0.0 0.0 0.00 0.00 0.00 1018.2
20260503000109 0 0.0 0.0 0.00 0.00 0.00 1018.2
20260502235605 0 0.0 0.0 0.00 0.00 0.00 1018.2
20260502235103 0 0.0 0.0 0.00 0.00 0.00 1018.2
20260502234559 0 0.0 0.0 0.00 0.00 0.00 1018.2
20260502234057 0 0.0 0.0 0.00 0.00 0.00 1018.2
20260502233552 0 0.0 0.0 0.00 0.00 0.00 1018.2
20260502233049 0 0.0 0.0 0.00 0.00 0.00 1018.2
20260502232545 0 0.0 0.0 0.00 0.00 0.00 1018.2
20260502232043 0 0.0 0.0 0.00 0.00 0.00 1018.2
20260502231539 0 0.0 0.0 0.00 0.00 0.00 1018.2
20260502231037 0 0.0 0.0 0.00 0.00 0.00 1018.2
20260502230535 0 0.0 0.0 0.00 0.00 0.00 1018.2
20260502230034 0 0.0 0.0 0.00 0.00 0.00 1018.2
20260502225529 0 0.0 0.0 0.00 0.00 0.00 1018.2